• In Hungary
  • List of Countries
  • For 7 days
  • Water Temperature
  • Satellite Maps
  • Weather Map
  • News
  • Weather Widgets
  • user-avatar
    Login

    Hourly Weather Juigalpa

    Today, 20 November, Monday

    Time Temperature Precipitation Wind Pressure Humidity
    00:00 +24°C° 0 mm 3 mps 751 mmHg 91%
    01:00 +24°C° 0 mm 3 mps 751 mmHg 91%
    02:00 +22°C° 0 mm 3 mps 751 mmHg 92%
    03:00 +22°C° 0 mm 3 mps 751 mmHg 92%
    04:00 +22°C° 0 mm 3 mps 751 mmHg 92%
    05:00 +22°C° 0 mm 3 mps 751 mmHg 91%
    06:00 +22°C° 0 mm 3 mps 751 mmHg 91%
    07:00 +23°C° 0 mm 4 mps 751 mmHg 85%
    08:00 +26°C° 0 mm 5 mps 752 mmHg 79%
    09:00 +28°C° 0 mm 6 mps 752 mmHg 73%
    10:00 +29°C° 0 mm 6 mps 751 mmHg 71%
    11:00 +30°C° 0 mm 6 mps 751 mmHg 69%
    12:00 +30°C° 0 mm 6 mps 750 mmHg 68%
    13:00 +30°C° 0 mm 5 mps 750 mmHg 69%
    14:00 +32°C° 0 mm 5 mps 749 mmHg 70%
    15:00 +32°C° 0 mm 5 mps 748 mmHg 71%
    16:00 +29°C° 0.1 mm 4 mps 749 mmHg 75%
    17:00 +28°C° 0.1 mm 3 mps 749 mmHg 79%
    18:00 +27°C° 0.1 mm 3 mps 749 mmHg 83%
    19:00 +26°C° 0.1 mm 3 mps 750 mmHg 84%
    20:00 +26°C° 0.1 mm 3 mps 751 mmHg 85%
    21:00 +25°C° 0.1 mm 3 mps 751 mmHg 86%
    22:00 +25°C° 0 mm 3 mps 751 mmHg 87%
    23:00 +24°C° 0 mm 3 mps 751 mmHg 88%

    Tomorrow, 21 November, Tuesday

    Time Temperature Precipitation Wind Pressure Humidity
    00:00 +24°C° 0 mm 3 mps 751 mmHg 89%
    01:00 +24°C° 0 mm 3 mps 751 mmHg 89%
    02:00 +23°C° 0 mm 2 mps 750 mmHg 90%
    03:00 +23°C° 0 mm 2 mps 750 mmHg 90%
    04:00 +23°C° 0 mm 2 mps 750 mmHg 90%
    05:00 +23°C° 0 mm 2 mps 750 mmHg 90%
    06:00 +21°C° 0 mm 2 mps 751 mmHg 89%
    07:00 +24°C° 0 mm 2 mps 751 mmHg 83%
    08:00 +26°C° 0 mm 3 mps 751 mmHg 77%
    09:00 +28°C° 0 mm 3 mps 752 mmHg 71%
    10:00 +29°C° 0 mm 3 mps 751 mmHg 69%
    11:00 +30°C° 0 mm 3 mps 751 mmHg 67%
    12:00 +31°C° 0 mm 3 mps 750 mmHg 66%
    13:00 +31°C° 0 mm 3 mps 750 mmHg 67%
    14:00 +31°C° 0 mm 2 mps 749 mmHg 68%
    15:00 +31°C° 0 mm 2 mps 748 mmHg 70%
    16:00 +30°C° 0 mm 1 mps 749 mmHg 73%
    17:00 +28°C° 0 mm 1 mps 749 mmHg 77%
    18:00 +27°C° 0 mm 1 mps 750 mmHg 81%
    19:00 +27°C° 0 mm 1 mps 750 mmHg 83%
    20:00 +27°C° 0 mm 1 mps 751 mmHg 84%
    21:00 +26°C° 0 mm 1 mps 751 mmHg 85%
    22:00 +26°C° 0 mm 1 mps 751 mmHg 86%
    23:00 +26°C° 0 mm 1 mps 751 mmHg 87%

    Day after tomorrow, 22 November, Wednesday

    Time Temperature Precipitation Wind Pressure Humidity
    00:00 +26°C° 0 mm 1 mps 751 mmHg 88%
    01:00 +25°C° 0 mm 1 mps 751 mmHg 89%
    02:00 +25°C° 0 mm 1 mps 751 mmHg 89%
    03:00 +25°C° 0 mm 1 mps 750 mmHg 90%
    04:00 +25°C° 0.1 mm 1 mps 750 mmHg 91%
    05:00 +24°C° 0.1 mm 1 mps 751 mmHg 92%
    06:00 +24°C° 0.1 mm 1 mps 751 mmHg 92%
    07:00 +26°C° 0 mm 2 mps 752 mmHg 87%
    08:00 +27°C° 0 mm 2 mps 752 mmHg 82%
    09:00 +29°C° 0 mm 2 mps 752 mmHg 76%
    10:00 +30°C° 0 mm 2 mps 752 mmHg 74%
    11:00 +31°C° 0 mm 2 mps 751 mmHg 71%
    12:00 +31°C° 0 mm 2 mps 751 mmHg 68%
    13:00 +31°C° 0.2 mm 2 mps 750 mmHg 70%
    14:00 +31°C° 0.2 mm 2 mps 749 mmHg 71%
    15:00 +31°C° 0.2 mm 2 mps 749 mmHg 72%
    16:00 +29°C° 0.7 mm 1 mps 749 mmHg 78%
    17:00 +28°C° 0.7 mm 1 mps 749 mmHg 83%
    18:00 +27°C° 0.7 mm 1 mps 750 mmHg 89%
    19:00 +26°C° 1.2 mm 1 mps 751 mmHg 89%
    20:00 +26°C° 1.2 mm 1 mps 751 mmHg 90%
    21:00 +25°C° 1.2 mm 1 mps 752 mmHg 91%
    22:00 +25°C° 1.2 mm 1 mps 752 mmHg 92%
    23:00 +25°C° 1.2 mm 1 mps 752 mmHg 93%

    23 November, Thursday

    Time Temperature Precipitation Wind Pressure Humidity
    00:00 +24°C° 1.2 mm 2 mps 752 mmHg 94%
    01:00 +24°C° 0.3 mm 1 mps 751 mmHg 94%
    02:00 +24°C° 0.3 mm 1 mps 751 mmHg 94%
    03:00 +24°C° 0.3 mm 1 mps 750 mmHg 94%
    04:00 +24°C° 0 mm 1 mps 750 mmHg 94%
    05:00 +24°C° 0 mm 1 mps 751 mmHg 94%
    06:00 +24°C° 0 mm 1 mps 751 mmHg 94%
    07:00 +25°C° 0 mm 2 mps 752 mmHg 89%
    08:00 +27°C° 0 mm 2 mps 752 mmHg 83%
    09:00 +29°C° 0 mm 2 mps 752 mmHg 77%
    10:00 +29°C° 0 mm 3 mps 752 mmHg 74%
    11:00 +30°C° 0 mm 3 mps 751 mmHg 71%
    12:00 +31°C° 0 mm 3 mps 750 mmHg 68%
    13:00 +31°C° 0 mm 3 mps 750 mmHg 69%
    14:00 +31°C° 0 mm 3 mps 749 mmHg 70%
    15:00 +31°C° 0 mm 3 mps 748 mmHg 70%
    16:00 +30°C° 0 mm 3 mps 749 mmHg 75%
    17:00 +28°C° 0 mm 2 mps 749 mmHg 79%
    18:00 +27°C° 0 mm 2 mps 750 mmHg 84%
    19:00 +26°C° 0 mm 2 mps 750 mmHg 85%
    20:00 +26°C° 0 mm 2 mps 751 mmHg 87%
    21:00 +25°C° 0 mm 3 mps 752 mmHg 89%
    22:00 +25°C° 0 mm 3 mps 751 mmHg 90%
    23:00 +25°C° 0 mm 3 mps 751 mmHg 91%

    24 November, Friday

    Time Temperature Precipitation Wind Pressure Humidity
    00:00 +24°C° 0 mm 3 mps 751 mmHg 91%
    01:00 +24°C° 0 mm 2 mps 751 mmHg 92%
    02:00 +24°C° 0 mm 2 mps 750 mmHg 92%
    03:00 +23°C° 0 mm 2 mps 750 mmHg 93%
    04:00 +23°C° 0 mm 2 mps 750 mmHg 93%
    05:00 +23°C° 0 mm 2 mps 751 mmHg 93%
    06:00 +21°C° 0 mm 2 mps 751 mmHg 94%
    07:00 +24°C° 0 mm 2 mps 752 mmHg 88%
    08:00 +26°C° 0 mm 3 mps 752 mmHg 83%
    09:00 +28°C° 0 mm 3 mps 752 mmHg 78%
    10:00 +29°C° 0 mm 3 mps 752 mmHg 74%
    11:00 +30°C° 0 mm 4 mps 751 mmHg 70%
    12:00 +30°C° 0 mm 4 mps 750 mmHg 67%
    13:00 +30°C° 0 mm 4 mps 750 mmHg 67%
    14:00 +30°C° 0 mm 4 mps 749 mmHg 68%
    15:00 +30°C° 0 mm 4 mps 749 mmHg 69%
    16:00 +29°C° 0 mm 3 mps 749 mmHg 73%
    17:00 +28°C° 0 mm 3 mps 750 mmHg 76%
    18:00 +27°C° 0 mm 2 mps 750 mmHg 80%
    19:00 +26°C° 0 mm 2 mps 751 mmHg 80%
    20:00 +26°C° 0 mm 3 mps 751 mmHg 81%
    21:00 +26°C° 0 mm 3 mps 752 mmHg 81%
    22:00 +25°C° 0 mm 3 mps 752 mmHg 82%
    23:00 +25°C° 0 mm 3 mps 752 mmHg 83%

    25 November, Saturday

    Time Temperature Precipitation Wind Pressure Humidity
    00:00 +24°C° 0 mm 3 mps 751 mmHg 84%
    01:00 +24°C° 0 mm 3 mps 751 mmHg 84%
    02:00 +22°C° 0 mm 3 mps 751 mmHg 84%
    03:00 +22°C° 0 mm 3 mps 751 mmHg 84%
    04:00 +22°C° 0 mm 3 mps 751 mmHg 85%
    05:00 +21°C° 0 mm 3 mps 751 mmHg 86%
    06:00 +21°C° 0 mm 3 mps 752 mmHg 87%
    07:00 +24°C° 0 mm 3 mps 752 mmHg 81%
    08:00 +26°C° 0 mm 4 mps 753 mmHg 76%
    09:00 +27°C° 0 mm 4 mps 753 mmHg 70%
    10:00 +28°C° 0 mm 5 mps 752 mmHg 69%
    11:00 +29°C° 0 mm 5 mps 752 mmHg 67%
    12:00 +30°C° 0 mm 5 mps 751 mmHg 65%
    13:00 +30°C° 0 mm 5 mps 751 mmHg 67%
    14:00 +30°C° 0 mm 5 mps 750 mmHg 68%
    15:00 +30°C° 0 mm 4 mps 750 mmHg 70%
    16:00 +29°C° 0 mm 4 mps 750 mmHg 73%
    17:00 +28°C° 0 mm 3 mps 751 mmHg 77%
    18:00 +27°C° 0 mm 3 mps 751 mmHg 81%
    19:00 +26°C° 0 mm 3 mps 752 mmHg 82%
    20:00 +26°C° 0 mm 3 mps 752 mmHg 82%
    21:00 +26°C° 0 mm 3 mps 752 mmHg 83%
    22:00 +25°C° 0 mm 4 mps 752 mmHg 83%
    23:00 +25°C° 0 mm 4 mps 752 mmHg 83%
    Show more